www.pogodaiklimat.ru

Погода и климат >> Архив погоды >> Россия >> Самарская область >> Самара


АРХИВ ПОГОДЫ в Самаре

Время (UTC), дата Ветер
(напр.,м/с)
 
Видим.   Явления Облачность Т
(С)
Тd
(С)
f
(%)
Тe
(С)
Тes
(С)
Комфортность P
(гПа)
Po
(гПа)
Тmin
(С)
Tmax
(С)
R
(мм)
R24
(мм)
S
(см)
15 14.05 СЗ 1 10 км ясно +24.9 0.0 19 +23 +25 комфорт 1018.7 1002.6 +25.4
18 14.05 штиль 0 10 км ясно +16.6 +3.6 42 +17 +17 1020.0 1003.4
21 14.05 С 1 10 км ясно +17.8 +3.6 39 +19 +19 1020.2 1003.7
00 15.05 штиль 0 10 км ясно +15.8 -1.3 31 +16 +16 1020.6 1004.0
03 15.05 штиль 0 10 км ясно +16.5 +1.0 35 +17 +20 1020.8 1004.2 +12.0
06 15.05 З 2 10 км 4/4 600 м
[Cu hum]
+21.2 -3.3 19 +20 +27 1020.2 1003.9
09 15.05 С 2 10 км 3/3 600 м
[Cu hum]
+25.0 +1.4 21 +24 +34 комфорт 1018.8 1002.6
12 15.05 СЗ 2 10 км 3/3 600 м
[Cu hum]
+26.1 +1.4 20 +25 +31 комфорт 1017.3 1001.3
15 15.05 З 2 10 км 1/1 600 м
[Cu hum]
+25.8 +2.8 22 +25 +26 комфорт 1015.9 999.9 +26.6
18 15.05 ЮЗ 1 10 км 3/0
[Ac trans]
+17.2 +5.6 46 +18 +18 1016.5 1000.0
21 15.05 штиль 0 10 км ясно +14.2 +5.6 56 +14 +14 1016.3 999.6
00 16.05 З 1
{10}
10 км 3/0
[Ac trans]
+15.9 +6.1 52 +17 +17 1016.3 999.7
03 16.05 СЗ 1 10 км ясно +18.7 +7.4 48 +20 +23 1017.0 1000.6 +12.4
06 16.05 С 1 10 км 3/0
[Ci fib]
+22.1 +6.6 37 +23 +35 комфорт 1017.3 1001.1
09 16.05 З 2 10 км 3/3 600 м
[Cu hum]
+26.0 +6.1 28 +26 +36 жарко 1016.9 1000.9
12 16.05 З 1 10 км 8/8 600 м
[Cb calv]
+26.4 +5.1 26 +26 +28 жарко 1016.3 1000.3
15 16.05 З 2 10 км 8/5 600 м
[Cb cap Ac trans Ci fib]
+22.5 +8.1 40 +24 +24 комфорт 1017.1 1000.9 +27.0
18 16.05 СВ 2 10 км 4/0
[Ac trans]
+21.1 +7.4 41 +22 +22 комфорт 1016.9 1000.6
21 16.05 штиль 0 10 км 3/0
[Ac trans]
+16.0 +8.6 61 +16 +16 1017.7 1001.2
00 17.05 В 2 10 км 8/0
[Ac trans]
+16.5 +6.1 50 +17 +17 1016.8 1000.3
03 17.05 З 2 10 км 9/0
[Ac trans Ci ing]
+15.2 +9.7 70 +15 +17 1017.2 1000.6 +14.5
06 17.05 З 2 10 км 9/0
[Ac trans Ci fib]
+21.3 +12.4 57 +24 +30 комфорт 1015.7 999.5
09 17.05 СЗ 2 10 км 8/5 600 м
[Cb calv Ci fib]
+24.5 +11.6 44 +26 +33 жарко 1015.4 999.3
12 17.05 штиль 0 10 км в посл. час гроза {ливн. осадки} 10/8 600 м
[Cb cap Ci fib]
+22.9 +16.3 66 +27 +29 душно 1014.9 998.8
15 17.05 ЮЗ 1 10 км {ливн. осадки} 6/5 600 м
[Cb cap Ci fib]
+25.4 +11.7 42 +27 +27 жарко 1014.4 998.4 +26.0 4
18 17.05 В 2 10 км {ливн. осадки} 3/0
[Ac trans]
+20.3 +13.7 66 +23 +23 комфорт 1015.3 999.0
21 17.05 штиль 0 10 км ясно +16.1 +13.3 83 +16 +16 1015.2 998.7
00 18.05 штиль 0 10 км 8/8 600 м
[Sc diur, vesp]
+15.2 +12.9 86 +15 +15 1015.1 998.6
03 18.05 В 1 10 км 6/3 600 м
[Sc Ci fib]
+17.3 +13.7 79 +18 +20 1014.6 998.2 +14.5
06 18.05 ЮЗ 1 10 км 4/0
[Ci fib]
+23.7 +13.5 53 +26 +38 жарко 1014.0 997.9
09 18.05 З 3 10 км 10/3 600 м
[Cu med, cong Ac trans]
+26.6 +11.5 39 +28 +31 жарко 1013.3 997.4
12 18.05 З 1 10 км 10/8 300 м
[Cb calv Ci sp]
+26.6 +12.2 41 +28 +30 жарко 1012.5 996.6
15 18.05 З 1 10 км 9/0
[Ac trans Ci fib]
+24.2 +11.3 44 +26 +26 жарко 1012.2 996.2 +28.0
18 18.05 штиль 0 10 км 6/0
[Ac trans]
+19.9 +13.8 68 +22 +22 комфорт 1013.2 997.0
21 18.05 В 1 10 км ясно +19.7 +13.4 67 +23 +23 комфорт 1012.2 996.0
00 19.05 В 2 10 км 6/0
[Ac trans]
+17.5 +13.4 77 +18 +18 1011.9 995.5
03 19.05 В 3 10 км 9/3 300 м
[Cb calv Ac trans]
+17.3 +12.9 75 +17 +18 1011.2 994.9 +16.8
06 19.05 Ю 2 10 км 8/5 600 м
[Cb cap Ac trans]
+21.3 +13.6 61 +24 +27 комфорт 1011.0 994.9
09 19.05 З 3 10 км 8/5 600 м
[Cb cap Ac trans Ci]
+25.8 +12.2 43 +27 +32 жарко 1011.1 995.2
12 19.05 З 2 10 км 10/6 600 м
[Cb cap Ac und]
+24.2 +11.8 46 +26 +27 жарко 1010.8 994.8
15 19.05 ЮЗ 3
{10}
10 км 8/4 600 м
[Cb cap Ac trans Ci fib]
+25.7 +9.3 35 +26 +27 жарко 1009.9 994.0 +26.1
18 19.05 ЮВ 1 10 км 4/0
[Ac trans Ci fib]
+18.6 +13.0 70 +20 +20 1011.0 994.8
21 19.05 ЮЗ 1 10 км гроза без осадков 3/3 600 м
[Cb calv]
+19.7 +10.9 57 +22 +22 комфорт 1010.3 994.1
00 20.05 штиль 0
{10}
10 км в посл. час гроза {ливн. осадки} 4/3 600 м
[Cb calv Ac trans Ci ing]
+13.9 +11.5 85 +14 +14 1011.3 994.8
03 20.05 З 2 10 км ясно +17.0 +12.4 74 +17 +20 1011.9 995.5 +13.6 0.5
06 20.05 З 2 10 км ясно +20.0 +13.2 65 +23 +34 комфорт 1012.8 996.6
09 20.05 ЮЗ 4 10 км 3/3 600 м
[Cu hum]
+23.5 +11.3 46 +25 +32 комфорт 1013.1 997.0
12 20.05 З 3
{10}
10 км 4/3 600 м
[Cu med, cong Ci fib]
+25.2 +10.9 41 +26 +32 жарко 1013.6 997.6
15 20.05 С 1 10 км 4/0
[Ci fib]
+23.6 +11.5 47 +25 +27 комфорт 1014.2 998.1 +25.5
18 20.05 С 1 10 км 3/0
[Ac trans Ci fib]
+18.6 +11.4 63 +20 +20 1016.9 1000.5
21 20.05 С 1 10 км 8/0
[Ci fib]
+14.8 +10.3 74 +15 +15 1018.3 1001.7
00 21.05 С 1 10 км 8/0
[Ac trans]
+12.9 +10.0 83 +13 +13 1019.9 1003.1
03 21.05 С 1 10 км слабый ливневой дождь 10/6 600 м
[Cb cap Ac trans]
+11.8 +9.8 88 +12 +12 1021.6 1004.8 +11.8 0.0
06 21.05 С 2 10 км {ливн. осадки} 10/6 600 м
[Sc diur, vesp Ac trans]
+11.9 +8.6 80 +11 +13 1022.9 1006.0 +10.7
09 21.05 СВ 2 10 км 10/3 600 м
[Sc diur, vesp Ac trans]
+14.3 +8.5 68 +14 +18 1023.4 1006.6
12 21.05 С 2 10 км 6/0
[Ac trans Ci fib]
+17.9 +6.3 47 +18 +25 1023.5 1006.9

 

Местоположение метеостанции Самара (Самарская область, Россия): широта 53.25 долгота 50.22 высота над уровнем моря 139 м.

В архиве по умолчанию представлена погода в Самаре за последнюю неделю. Архивные данные за месяц целиком и за предыдущие месяцы, начиная с января 2011 года, Вы можете получить, выбрав интересующий диапазон дат из раскрывающегося списка и нажав кнопку "Ввод!".


*Определитесь, кто Вы:
робот инопланетянин человек

Внимание! Время в таблицах - всемирное. Для получения местного времени необходимо прибавить поправку, которая в Самаре равна 4 ч.

Смотрите также архив погоды в соседних городах и на ближайших метеорологических станциях:

Погода в Самаре АМС (Самарская область, Россия) (7 км)
Погода в Самаре-Центр (Самарская область, Россия) (8 км)
Погода в Курумоче (Самарская область, Россия) (28 км)
Погода в Аглосе (Самарская область, Россия) (32 км)
Погода в Чапаевске (Самарская область, Россия) (43 км)
Погода в Безенчуке (Самарская область, Россия) (61 км)
Погода в Тольятти (Самарская область, Россия) (69 км)
Погода в Богатом (Самарская область, Россия) (73 км)
Погода в Кинель-Черкассах (Самарская область, Россия) (94 км)
Погода в Большая Глушица (Самарская область, Россия) (98 км)

Пояснения к столбцам:

Ветер - указаны скорость ветра в м/с - средняя за 10 мин, порывы в срок и между сроками (в фигурных скобках) и направление, откуда дует ветер: С - северный, СВ - северо-восточный, В - восточный, ЮВ - юго-восточный, Ю - южный, ЮЗ - юго-западный, З - западный, СЗ - северо-западный.
Видимость - горизонтальная дальность видимости в метрах или километрах. При видимости от 1 до 10 км при отсутствии осадков обычно наблюдается дымка, при ухудшении видимости до 1 км и менее - туман. В сухую погоду видимость может ухудшаться дымом, пылью или мглою.
Явления - указаны атмосферные явления, наблюдавшиеся в срок или в последний час перед сроком; фигурными скобками обозначены явления, наблюдавшиеся между сроками (за 1-3 часа до срока); квадратными скобками обозначены град или гололедные отложения с указанием их диаметра в мм.
Облачность - указаны через наклонную черту общая и нижняя облачность в баллах и высота нижней границы облаков в метрах; квадратными скобками обозначены формы облаков: Ci - перистые, Cs - перисто-слоистые, Cc - перисто-кучевые, Ac - высококучевые, As - высокослоистые, Sc - слоисто-кучевые, Ns - слоисто-дождевые, Cu - кучевые, Cb - кучево-дождевые. Подробнее классификацию облаков см. в Атласе облаков (PDF).
T - Температура воздуха - температура, измеренная на высоте 2 м над землей.
Td - Температура точки росы - температура, при понижении до которой содержащийся в воздухе водяной пар достигнет насыщения.
f - Относительная влажность воздуха - влажноcть воздуха, измеренная на высоте 2 м над землей.
Te - Эффективная температура - температура, которую ощущает одетый по сезону человек в тени. Характеристика душности погоды. При расчете учитывается влияние влажности воздуха и скорости ветра на теплоощущения человека.
Tes - Эффективная температура на солнце - температура, которую ощущает человек, с поправкой на солнечный нагрев. Характеристика знойности погоды. Зависит от высоты солнца над горизонтом, облачности и скорости ветра. Ночью, в пасмурную погоду, а также при ветре 12 м/с и более поправка равна нулю.
P - Атмосферное давление - приведенное к уровню моря атмосферное давление.
Po - Атмосферное давление - измеренное на уровне метеостанции атмосферное давление.
Tmin - Минимальная температура - минимум температуры воздуха на высоте 2 м над землей.
Tmax - Максимальная температура - максимум температуры воздуха на высоте 2 м над землей.
R - Количество осадков - Количество выпавших осадков за период времени, мм. При наведении курсора мыши на число - период времени, за который выпало указанное количество осадков.
R24 - Количество осадков - Количество выпавших осадков за 24 часа, мм.
S - Снежный покров - Высота снежного покрова, см. При наведении курсора мыши на число - состояние снежного покрова и степень покрытия местности в баллах.